カタログに戻る

COSMOS 2251 DEB

運用中LEO
NORAD 34750·DEBRIS·🇷🇺 Russia

打ち上げ Jun 16, 1993 から Plesetsk Cosmodrome

Loading…

次のパス (今後24時間)

TLE

最新Source: Space-Track

元期: Sep 14, 2026, 09:38 UTC

1 34750U 93036ZU  26257.40207209  .00003467  00000-0  65975-3 0  9991
2 34750  74.1072  35.5458 0035975 271.6765 118.1377 14.64078347922628

AllMySatでCOSMOS 2251 DEBをリアルタイム追跡

Download on the App Store